WGS F8 (USA 272)

Last updated on Sat Aug 15 2026 00:03:00 GMT+0000 (Coordinated Universal Time)

1 41879U 16075A 26226.59740869 -.00000218 00000+0 00000+0 0 9994 2 41879 0.0240 85.8402 0000142 275.7540 326.2612 1.00269620 35401
UTC large
Height (km)
Speed (km/s)
/
Latitude / Longitude
Inclination (degrees)
Orbital Period (minutes)
Azimuth
Elevation
Range (km)
Doppler Factor

Next 0 passes for location: London (51.5072 / 0.1276)

No passes found over London.
WGS F8 (USA 272)